User: anonymous   Login
Location: Unspecified
(0.0000°N, 0.0000°E)
Time: 08:23:19
(UTC+00:00)
Language:

CUTE 1.7 + AOD 2 - Orbit

View from above orbital plane
View from above orbital plane
View from above satellite
View from above satellite

Ground track
Ground track

The orbit data is extracted from the following two-line orbital elements,

1 32785U 08021C   15110.51234510  .00002606  00000-0  29884-3 0  9993
2 32785 097.6549 156.1874 0012001 254.7764 211.8130 14.86674588377660
Epoch (UTC): 20 April 2015 12:17:46
Eccentricity: 0.0012001
inclination: 97.6549°
perigee height: 600 km
apogee height: 617 km
right ascension of ascending node: 156.1874°
argument of perigee: 254.7764°
revolutions per day: 14.86674588
mean anomaly at epoch: 211.8130°
orbit number at epoch: 37766

The dashed part of the orbit path shows where the satellite is in the earth's shadow,  

DLR